Location: Narrabri
(30.3170°S, 149.7830°E)
Time: 18:45:30
(UTC+10:00)

ISS - Visible Passes

Search period start: 23 May 2017 00:00
Search period end: 02 June 2017 00:00
Orbit: 402 x 409 km, 51.6° (Epoch: 23 May)

Date Brightness Start Highest point End Pass type
(mag) Time Alt. Az. Time Alt. Az. Time Alt. Az.
23 May -0.3 18:02:16 10° W 18:03:48 13° NW 18:05:20 10° NNW visible
28 May -0.2 05:34:28 10° NE 05:35:28 11° NE 05:36:28 10° ENE visible
29 May -3.7 06:16:15 10° NW 06:19:31 81° NE 06:22:50 10° SE visible
30 May -2.0 05:24:32 10° NNW 05:27:30 33° NE 05:30:31 10° ESE visible
31 May -0.8 04:35:08 15° NE 04:35:33 15° NE 04:37:32 10° E visible
31 May -3.0 06:08:48 10° WNW 06:11:48 32° SW 06:14:49 10° SSE visible
01 Jun -4.0 05:19:36 73° SW 05:19:38 73° SW 05:22:57 10° SE visible
